17.05.2024;10:00;2
17.05.2024;09:00;2
17.05.2024;08:00;2
17.05.2024;07:00;2
17.05.2024;06:00;2
17.05.2024;05:00;2
17.05.2024;04:00;5
17.05.2024;03:00;12
17.05.2024;02:00;10
17.05.2024;01:00;8
16.05.2024;24:00;8
16.05.2024;23:00;8
16.05.2024;22:00;5
16.05.2024;21:00;5
16.05.2024;20:00;11
16.05.2024;19:00;8
16.05.2024;18:00;10
16.05.2024;17:00;13
16.05.2024;16:00;9
16.05.2024;15:00;10
16.05.2024;14:00;12
16.05.2024;13:00;11
16.05.2024;12:00;8
16.05.2024;11:00;12
16.05.2024;10:00;14
16.05.2024;09:00;13
16.05.2024;08:00;8
16.05.2024;07:00;5
16.05.2024;06:00;10
16.05.2024;05:00;9
16.05.2024;04:00;11
16.05.2024;03:00;11
16.05.2024;02:00;9
16.05.2024;01:00;9
15.05.2024;24:00;11
15.05.2024;23:00;11
15.05.2024;22:00;10
15.05.2024;21:00;12
15.05.2024;20:00;11
15.05.2024;19:00;9
15.05.2024;18:00;10
15.05.2024;17:00;16
15.05.2024;16:00;19
15.05.2024;15:00;17
15.05.2024;14:00;15
15.05.2024;13:00;20
15.05.2024;12:00;18
15.05.2024;11:00;20
15.05.2024;10:00;17
15.05.2024;09:00;13
15.05.2024;08:00;12
15.05.2024;07:00;9
15.05.2024;06:00;6
15.05.2024;05:00;6
15.05.2024;04:00;7
15.05.2024;03:00;7
15.05.2024;02:00;7
15.05.2024;01:00;7
14.05.2024;24:00;7
14.05.2024;23:00;9
14.05.2024;22:00;9
14.05.2024;21:00;12
14.05.2024;20:00;7
14.05.2024;19:00;9
14.05.2024;18:00;13
14.05.2024;17:00;13
14.05.2024;16:00;12
14.05.2024;15:00;14
14.05.2024;14:00;14
14.05.2024;13:00;11
14.05.2024;12:00;12
14.05.2024;11:00;16
14.05.2024;10:00;16
14.05.2024;09:00;19
14.05.2024;08:00;17
14.05.2024;07:00;19
14.05.2024;06:00;19
14.05.2024;05:00;14
14.05.2024;04:00;16
14.05.2024;03:00;16
14.05.2024;02:00;17
14.05.2024;01:00;21
13.05.2024;24:00;19
13.05.2024;23:00;13
13.05.2024;22:00;25
13.05.2024;21:00;24
13.05.2024;20:00;19
13.05.2024;19:00;12
13.05.2024;18:00;7
13.05.2024;17:00;16
13.05.2024;16:00;17
13.05.2024;15:00;14
13.05.2024;14:00;9
13.05.2024;13:00;10
13.05.2024;12:00;10
13.05.2024;11:00;11
13.05.2024;10:00;20
13.05.2024;09:00;22
13.05.2024;08:00;21
13.05.2024;07:00;18
13.05.2024;06:00;17
13.05.2024;05:00;11
13.05.2024;04:00;12
13.05.2024;03:00;10
13.05.2024;02:00;11
13.05.2024;01:00;13
12.05.2024;24:00;12
12.05.2024;23:00;13
12.05.2024;22:00;10
12.05.2024;21:00;8
12.05.2024;20:00;8
12.05.2024;19:00;11
12.05.2024;18:00;9
12.05.2024;17:00;12
12.05.2024;16:00;10
12.05.2024;15:00;10
12.05.2024;14:00;8
12.05.2024;13:00;7
12.05.2024;12:00;13
12.05.2024;11:00;16
12.05.2024;10:00;18
12.05.2024;09:00;21
12.05.2024;08:00;17
12.05.2024;07:00;24
12.05.2024;06:00;21
12.05.2024;05:00;21
12.05.2024;04:00;25
12.05.2024;03:00;16
12.05.2024;02:00;19
12.05.2024;01:00;20
